Location: Home
(42.5358°N, 72.7383°W)
Time: 00:57:49
(UTC-05:00)

Vanguard 1 - Pass Details

Date: 04 December 2021
Orbit: 652 x 3830 km, 34.2° (Epoch: 21 January)

Event Time Altitude Azimuth Distance (km) Brightness Sun altitude
Rises 02:13:10 0° 262° (W) 7,784 - -52.5°
Reaches altitude 10° 02:18:20 10° 261° (W) 6,886 - -51.6°
Maximum altitude 02:41:36 67° 185° (S) 3,627 - -47.5°
Exits shadow 02:41:42 67° 184° (S) 3,622 12.5 -47.5°
Drops below altitude 10° 02:58:01 10° 108° (ESE) 5,109 14.2 -44.6°
Sets 03:01:12 0° 105° (ESE) 5,776 14.7 -44.0°
